Data supplied by UK-AIR on 5/5/2022
All Data GMT hour ending 
Status: R =Ratified P=Provisional,P*=As supplied
,,Birkenhead Borough Road,,,,,,,,,,,,,,,,,,,,,,,
Date,time,"Nitric oxide",status,unit,"Nitrogen dioxide",status,unit,"Nitrogen oxides as nitrogen dioxide",status,unit
 
01-01-2021,01:00,26.95711,R,ugm-3,52.33751,R,ugm-3,93.67117,R,ugm-3
01-01-2021,02:00,3.77216,R,ugm-3,38.82143,R,ugm-3,44.60532,R,ugm-3
01-01-2021,03:00,1.72507,R,ugm-3,27.56806,R,ugm-3,30.21313,R,ugm-3
01-01-2021,04:00,0.93154,R,ugm-3,10.01920,R,ugm-3,11.44754,R,ugm-3
01-01-2021,05:00,1.06954,R,ugm-3,10.33031,R,ugm-3,11.97026,R,ugm-3
01-01-2021,06:00,0.96604,R,ugm-3,6.41181,R,ugm-3,7.89305,R,ugm-3
01-01-2021,07:00,0.65553,R,ugm-3,5.31977,R,ugm-3,6.32490,R,ugm-3
01-01-2021,08:00,0.51752,R,ugm-3,6.99499,R,ugm-3,7.78851,R,ugm-3
01-01-2021,09:00,0.55202,R,ugm-3,9.55568,R,ugm-3,10.40210,R,ugm-3
01-01-2021,10:00,1.51806,R,ugm-3,10.68803,R,ugm-3,13.01569,R,ugm-3
01-01-2021,11:00,2.10459,R,ugm-3,14.96362,R,ugm-3,18.19061,R,ugm-3
01-01-2021,12:00,1.69057,R,ugm-3,8.33265,R,ugm-3,10.92482,R,ugm-3
01-01-2021,13:00,2.10459,R,ugm-3,9.31826,R,ugm-3,12.54525,R,ugm-3
01-01-2021,14:00,2.17359,R,ugm-3,11.19879,R,ugm-3,14.53158,R,ugm-3
01-01-2021,15:00,2.17359,R,ugm-3,9.78745,R,ugm-3,13.12024,R,ugm-3
01-01-2021,16:00,1.86308,R,ugm-3,10.52492,R,ugm-3,13.38160,R,ugm-3
01-01-2021,17:00,2.13909,R,ugm-3,15.32889,R,ugm-3,18.60878,R,ugm-3
01-01-2021,18:00,1.75957,R,ugm-3,14.55174,R,ugm-3,17.24971,R,ugm-3
01-01-2021,19:00,1.79407,R,ugm-3,18.57604,R,ugm-3,21.32692,R,ugm-3
01-01-2021,20:00,1.27655,R,ugm-3,14.45601,R,ugm-3,16.41336,R,ugm-3
01-01-2021,21:00,4.51969,R,ugm-3,27.88297,R,ugm-3,34.81306,R,ugm-3
01-01-2021,22:00,2.10459,R,ugm-3,16.79314,R,ugm-3,20.02012,R,ugm-3
01-01-2021,23:00,2.07009,R,ugm-3,20.55734,R,ugm-3,23.73142,R,ugm-3
01-01-2021,24:00,8.14233,R,ugm-3,39.68258,R,ugm-3,52.16731,R,ugm-3
02-01-2021,01:00,31.46975,R,ugm-3,51.40555,R,ugm-3,99.65850,R,ugm-3
02-01-2021,02:00,11.35126,R,ugm-3,38.68348,R,ugm-3,56.08850,R,ugm-3
02-01-2021,03:00,5.95249,R,ugm-3,34.88007,R,ugm-3,44.00709,R,ugm-3
02-01-2021,04:00,8.37502,R,ugm-3,31.16558,R,ugm-3,44.00709,R,ugm-3
02-01-2021,05:00,4.91427,R,ugm-3,26.45369,R,ugm-3,33.98879,R,ugm-3
02-01-2021,06:00,11.17822,R,ugm-3,29.01792,R,ugm-3,46.15762,R,ugm-3
02-01-2021,07:00,24.12143,R,ugm-3,46.83237,R,ugm-3,83.81804,R,ugm-3
02-01-2021,08:00,7.50983,R,ugm-3,31.91522,R,ugm-3,43.43013,R,ugm-3
02-01-2021,09:00,11.87037,R,ugm-3,36.03422,R,ugm-3,54.23520,R,ugm-3
02-01-2021,10:00,35.26504,R,ugm-3,62.58058,R,ugm-3,116.65289,R,ugm-3
02-01-2021,11:00,64.68142,R,ugm-3,70.50491,R,ugm-3,169.68170,R,ugm-3
02-01-2021,12:00,26.44013,R,ugm-3,50.62033,R,ugm-3,91.16130,R,ugm-3
02-01-2021,13:00,10.00157,R,ugm-3,30.29758,R,ugm-3,45.63310,R,ugm-3
02-01-2021,14:00,7.99433,R,ugm-3,28.23502,R,ugm-3,40.49282,R,ugm-3
02-01-2021,15:00,8.06355,R,ugm-3,34.42311,R,ugm-3,46.78704,R,ugm-3
02-01-2021,16:00,8.27119,R,ugm-3,35.04886,R,ugm-3,47.73118,R,ugm-3
02-01-2021,17:00,4.49898,R,ugm-3,28.24440,R,ugm-3,35.14273,R,ugm-3
02-01-2021,18:00,2.76860,R,ugm-3,20.66950,R,ugm-3,24.91463,R,ugm-3
02-01-2021,19:00,2.31870,R,ugm-3,19.20880,R,ugm-3,22.76410,R,ugm-3
02-01-2021,20:00,1.79959,R,ugm-3,10.30118,R,ugm-3,13.06051,R,ugm-3
02-01-2021,21:00,1.03823,R,ugm-3,10.83916,R,ugm-3,12.43109,R,ugm-3
02-01-2021,22:00,1.48812,R,ugm-3,17.07297,R,ugm-3,19.35473,R,ugm-3
02-01-2021,23:00,1.41891,R,ugm-3,22.89635,R,ugm-3,25.07198,R,ugm-3
02-01-2021,24:00,2.18027,R,ugm-3,21.78139,R,ugm-3,25.12443,R,ugm-3
03-01-2021,01:00,1.01827,R,ugm-3,10.22821,R,ugm-3,11.78953,R,ugm-3
03-01-2021,02:00,0.87941,R,ugm-3,12.82709,R,ugm-3,14.17550,R,ugm-3
03-01-2021,03:00,1.00670,R,ugm-3,12.66702,R,ugm-3,14.21059,R,ugm-3
03-01-2021,04:00,0.65956,R,ugm-3,14.51508,R,ugm-3,15.52639,R,ugm-3
03-01-2021,05:00,0.93727,R,ugm-3,12.08926,R,ugm-3,13.52638,R,ugm-3
03-01-2021,06:00,0.83313,R,ugm-3,9.93314,R,ugm-3,11.21058,R,ugm-3
03-01-2021,07:00,1.66625,R,ugm-3,20.39259,R,ugm-3,22.94748,R,ugm-3
03-01-2021,08:00,1.90925,R,ugm-3,20.49369,R,ugm-3,23.42116,R,ugm-3
03-01-2021,09:00,1.83982,R,ugm-3,25.44227,R,ugm-3,28.26329,R,ugm-3
03-01-2021,10:00,4.75576,R,ugm-3,28.81337,R,ugm-3,36.10543,R,ugm-3
03-01-2021,11:00,8.43540,R,ugm-3,27.59240,R,ugm-3,40.52650,R,ugm-3
03-01-2021,12:00,8.74782,R,ugm-3,24.16598,R,ugm-3,37.57912,R,ugm-3
03-01-2021,13:00,10.69179,R,ugm-3,23.92214,R,ugm-3,40.31598,R,ugm-3
03-01-2021,14:00,6.90800,R,ugm-3,22.25013,R,ugm-3,32.84226,R,ugm-3
03-01-2021,15:00,11.28192,R,ugm-3,30.96469,R,ugm-3,48.26338,R,ugm-3
03-01-2021,16:00,8.19241,R,ugm-3,29.54394,R,ugm-3,42.10546,R,ugm-3
03-01-2021,17:00,8.85196,R,ugm-3,36.63794,R,ugm-3,50.21076,R,ugm-3
03-01-2021,18:00,21.73070,R,ugm-3,49.41728,R,ugm-3,82.73723,R,ugm-3
03-01-2021,19:00,6.07488,R,ugm-3,38.89607,R,ugm-3,48.21075,R,ugm-3
03-01-2021,20:00,3.26308,R,ugm-3,31.41791,R,ugm-3,36.42122,R,ugm-3
03-01-2021,21:00,3.64493,R,ugm-3,35.62191,R,ugm-3,41.21072,R,ugm-3
03-01-2021,22:00,8.05355,R,ugm-3,38.96742,R,ugm-3,51.31603,R,ugm-3
03-01-2021,23:00,2.81180,R,ugm-3,27.58352,R,ugm-3,31.89489,R,ugm-3
03-01-2021,24:00,1.94396,R,ugm-3,20.96678,R,ugm-3,23.94748,R,ugm-3
04-01-2021,01:00,0.92853,R,ugm-3,14.34941,R,ugm-3,15.77313,R,ugm-3
04-01-2021,02:00,1.25351,R,ugm-3,12.93570,R,ugm-3,14.85772,R,ugm-3
04-01-2021,03:00,0.87049,R,ugm-3,12.66039,R,ugm-3,13.99513,R,ugm-3
04-01-2021,04:00,0.80085,R,ugm-3,9.17597,R,ugm-3,10.40393,R,ugm-3
04-01-2021,05:00,1.14905,R,ugm-3,10.70174,R,ugm-3,12.46359,R,ugm-3
04-01-2021,06:00,1.39279,R,ugm-3,12.22924,R,ugm-3,14.36481,R,ugm-3
04-01-2021,07:00,2.78557,R,ugm-3,21.02570,R,ugm-3,25.29686,R,ugm-3
04-01-2021,08:00,10.79410,R,ugm-3,36.10265,R,ugm-3,52.65337,R,ugm-3
04-01-2021,09:00,15.49475,R,ugm-3,40.98899,R,ugm-3,64.74727,R,ugm-3
04-01-2021,10:00,22.59796,R,ugm-3,43.51175,R,ugm-3,78.16147,R,ugm-3
04-01-2021,11:00,29.28334,R,ugm-3,45.98862,R,ugm-3,90.88912,R,ugm-3
04-01-2021,12:00,23.64255,R,ugm-3,42.75505,R,ugm-3,79.00646,R,ugm-3
04-01-2021,13:00,19.39456,R,ugm-3,42.98395,R,ugm-3,72.72186,R,ugm-3
04-01-2021,14:00,13.99751,R,ugm-3,39.69353,R,ugm-3,61.15607,R,ugm-3
04-01-2021,15:00,15.32065,R,ugm-3,41.57280,R,ugm-3,65.06415,R,ugm-3
04-01-2021,16:00,13.40557,R,ugm-3,38.48867,R,ugm-3,59.04360,R,ugm-3
04-01-2021,17:00,15.45993,R,ugm-3,45.42575,R,ugm-3,69.13065,R,ugm-3
04-01-2021,18:00,10.55036,R,ugm-3,40.38445,R,ugm-3,56.56144,R,ugm-3
04-01-2021,19:00,7.76479,R,ugm-3,35.36073,R,ugm-3,47.26657,R,ugm-3
04-01-2021,20:00,6.68538,R,ugm-3,35.11457,R,ugm-3,45.36534,R,ugm-3
04-01-2021,21:00,3.41233,R,ugm-3,30.57424,R,ugm-3,35.80640,R,ugm-3
04-01-2021,22:00,3.06413,R,ugm-3,32.74530,R,ugm-3,37.44357,R,ugm-3
04-01-2021,23:00,3.89980,R,ugm-3,37.43169,R,ugm-3,43.41130,R,ugm-3
04-01-2021,24:00,3.02931,R,ugm-3,31.47840,R,ugm-3,36.12328,R,ugm-3
05-01-2021,01:00,2.00241,R,ugm-3,26.11049,R,ugm-3,29.18081,R,ugm-3
05-01-2021,02:00,1.16419,R,ugm-3,16.51476,R,ugm-3,18.29983,R,ugm-3
05-01-2021,03:00,1.46688,R,ugm-3,21.65011,R,ugm-3,23.89930,R,ugm-3
05-01-2021,04:00,0.94300,R,ugm-3,13.97470,R,ugm-3,15.42061,R,ugm-3
05-01-2021,05:00,1.25733,R,ugm-3,18.89790,R,ugm-3,20.82577,R,ugm-3
05-01-2021,06:00,2.02569,R,ugm-3,23.81381,R,ugm-3,26.91983,R,ugm-3
05-01-2021,07:00,2.61943,R,ugm-3,24.91711,R,ugm-3,28.93352,R,ugm-3
05-01-2021,08:00,6.53112,R,ugm-3,30.52448,R,ugm-3,40.53872,R,ugm-3
05-01-2021,09:00,7.43919,R,ugm-3,39.46553,R,ugm-3,50.87212,R,ugm-3
05-01-2021,10:00,12.43357,R,ugm-3,44.10167,R,ugm-3,63.16621,R,ugm-3
05-01-2021,11:00,11.21117,R,ugm-3,37.97424,R,ugm-3,55.16445,R,ugm-3
05-01-2021,12:00,13.16701,R,ugm-3,31.90180,R,ugm-3,52.09093,R,ugm-3
05-01-2021,13:00,12.92253,R,ugm-3,29.52109,R,ugm-3,49.33536,R,ugm-3
05-01-2021,14:00,13.79567,R,ugm-3,28.34126,R,ugm-3,49.49433,R,ugm-3
05-01-2021,15:00,13.09716,R,ugm-3,32.00890,R,ugm-3,52.09093,R,ugm-3
05-01-2021,16:00,15.82136,R,ugm-3,36.68147,R,ugm-3,60.94056,R,ugm-3
05-01-2021,17:00,17.56765,R,ugm-3,44.12530,R,ugm-3,71.06199,R,ugm-3
05-01-2021,18:00,22.66681,R,ugm-3,48.01788,R,ugm-3,82.77317,R,ugm-3
05-01-2021,19:00,10.75713,R,ugm-3,39.35931,R,ugm-3,55.85334,R,ugm-3
05-01-2021,20:00,6.35649,R,ugm-3,35.56150,R,ugm-3,45.30798,R,ugm-3
05-01-2021,21:00,5.23886,R,ugm-3,33.83070,R,ugm-3,41.86351,R,ugm-3
05-01-2021,22:00,3.49258,R,ugm-3,27.60569,R,ugm-3,32.96089,R,ugm-3
05-01-2021,23:00,4.68005,R,ugm-3,32.40889,R,ugm-3,39.58487,R,ugm-3
05-01-2021,24:00,16.72943,R,ugm-3,45.25157,R,ugm-3,70.90301,R,ugm-3
06-01-2021,01:00,4.43737,R,ugm-3,36.51340,R,ugm-3,43.31727,R,ugm-3
06-01-2021,02:00,2.84926,R,ugm-3,27.03799,R,ugm-3,31.40679,R,ugm-3
06-01-2021,03:00,3.11783,R,ugm-3,27.33514,R,ugm-3,32.11575,R,ugm-3
06-01-2021,04:00,1.61146,R,ugm-3,20.23347,R,ugm-3,22.70435,R,ugm-3
06-01-2021,05:00,1.82166,R,ugm-3,18.68823,R,ugm-3,21.48140,R,ugm-3
06-01-2021,06:00,6.20063,R,ugm-3,27.18101,R,ugm-3,36.68852,R,ugm-3
06-01-2021,07:00,18.49681,R,ugm-3,33.58374,R,ugm-3,61.94511,R,ugm-3
06-01-2021,08:00,18.49681,R,ugm-3,36.34867,R,ugm-3,64.71004,R,ugm-3
06-01-2021,09:00,31.56368,R,ugm-3,42.36724,R,ugm-3,90.76421,R,ugm-3
06-01-2021,10:00,49.25476,R,ugm-3,44.27309,R,ugm-3,119.79600,R,ugm-3
06-01-2021,11:00,47.85348,R,ugm-3,42.00842,R,ugm-3,115.38274,R,ugm-3
06-01-2021,12:00,43.68470,R,ugm-3,43.29599,R,ugm-3,110.27825,R,ugm-3
06-01-2021,13:00,35.97769,R,ugm-3,45.48914,R,ugm-3,100.65416,R,ugm-3
06-01-2021,14:00,32.01910,R,ugm-3,44.32754,R,ugm-3,93.42280,R,ugm-3
06-01-2021,15:00,40.88215,R,ugm-3,49.93272,R,ugm-3,112.61781,R,ugm-3
06-01-2021,16:00,59.55412,R,ugm-3,55.06685,R,ugm-3,146.38188,R,ugm-3
06-01-2021,17:00,101.31206,R,ugm-3,59.68364,R,ugm-3,215.02664,R,ugm-3
06-01-2021,18:00,179.36299,R,ugm-3,64.74820,R,ugm-3,339.76761,R,ugm-3
06-01-2021,19:00,292.30561,R,ugm-3,80.70391,R,ugm-3,528.89960,R,ugm-3
06-01-2021,20:00,307.05402,R,ugm-3,84.30369,R,ugm-3,555.11328,R,ugm-3
06-01-2021,21:00,224.48399,R,ugm-3,75.48080,R,ugm-3,419.68478,R,ugm-3
06-01-2021,22:00,186.92986,R,ugm-3,61.54696,R,ugm-3,348.16875,R,ugm-3
06-01-2021,23:00,154.38529,R,ugm-3,52.95900,R,ugm-3,289.67980,R,ugm-3
06-01-2021,24:00,112.17193,R,ugm-3,45.63750,R,ugm-3,217.63206,R,ugm-3
07-01-2021,01:00,141.25442,R,ugm-3,42.41788,R,ugm-3,259.00498,R,ugm-3
07-01-2021,02:00,38.46431,R,ugm-3,35.91721,R,ugm-3,94.89498,R,ugm-3
07-01-2021,03:00,20.66109,R,ugm-3,31.43522,R,ugm-3,63.11512,R,ugm-3
07-01-2021,04:00,30.56999,R,ugm-3,33.15430,R,ugm-3,80.02763,R,ugm-3
07-01-2021,05:00,12.61451,R,ugm-3,32.62263,R,ugm-3,51.96461,R,ugm-3
07-01-2021,06:00,18.83392,R,ugm-3,35.83740,R,ugm-3,64.71568,R,ugm-3
07-01-2021,07:00,42.90340,R,ugm-3,37.50470,R,ugm-3,103.28899,R,ugm-3
07-01-2021,08:00,78.77921,R,ugm-3,45.23755,R,ugm-3,166.03065,R,ugm-3
07-01-2021,09:00,93.36144,R,ugm-3,50.99481,R,ugm-3,194.14703,R,ugm-3
07-01-2021,10:00,115.91999,R,ugm-3,58.87352,R,ugm-3,236.61502,R,ugm-3
07-01-2021,11:00,,,,,,,,,
07-01-2021,12:00,,,,,,,,,
07-01-2021,13:00,70.83804,R,ugm-3,50.37141,R,ugm-3,158.98822,R,ugm-3
07-01-2021,14:00,14.40655,R,ugm-3,24.16624,R,ugm-3,46.25597,R,ugm-3
07-01-2021,15:00,30.04292,R,ugm-3,38.49736,R,ugm-3,84.56253,R,ugm-3
07-01-2021,16:00,62.36980,R,ugm-3,50.23133,R,ugm-3,145.86369,R,ugm-3
07-01-2021,17:00,73.85990,R,ugm-3,57.15523,R,ugm-3,170.40550,R,ugm-3
07-01-2021,18:00,18.27172,R,ugm-3,38.03323,R,ugm-3,66.04947,R,ugm-3
07-01-2021,19:00,40.30319,R,ugm-3,55.09633,R,ugm-3,116.89369,R,ugm-3
07-01-2021,20:00,35.66498,R,ugm-3,48.65680,R,ugm-3,103.34235,R,ugm-3
07-01-2021,21:00,53.79615,R,ugm-3,42.46353,R,ugm-3,124.94980,R,ugm-3
07-01-2021,22:00,53.12853,R,ugm-3,42.52686,R,ugm-3,123.98947,R,ugm-3
07-01-2021,23:00,62.36980,R,ugm-3,46.44336,R,ugm-3,142.07572,R,ugm-3
07-01-2021,24:00,75.58166,R,ugm-3,44.80522,R,ugm-3,160.69548,R,ugm-3
08-01-2021,01:00,49.41283,R,ugm-3,40.35666,R,ugm-3,116.12193,R,ugm-3
08-01-2021,02:00,24.30830,R,ugm-3,41.44609,R,ugm-3,78.71830,R,ugm-3
08-01-2021,03:00,12.22441,R,ugm-3,41.94819,R,ugm-3,60.69202,R,ugm-3
08-01-2021,04:00,4.25044,R,ugm-3,29.58864,R,ugm-3,36.10589,R,ugm-3
08-01-2021,05:00,1.22947,R,ugm-3,12.72786,R,ugm-3,14.61302,R,ugm-3
08-01-2021,06:00,2.00227,R,ugm-3,17.51611,R,ugm-3,20.58622,R,ugm-3
08-01-2021,07:00,2.63457,R,ugm-3,22.30648,R,ugm-3,26.34610,R,ugm-3
08-01-2021,08:00,3.05610,R,ugm-3,21.18015,R,ugm-3,25.86611,R,ugm-3
08-01-2021,09:00,3.96942,R,ugm-3,26.28628,R,ugm-3,32.37263,R,ugm-3
08-01-2021,10:00,7.37680,R,ugm-3,34.50141,R,ugm-3,45.81234,R,ugm-3
08-01-2021,11:00,6.88501,R,ugm-3,33.28218,R,ugm-3,43.83905,R,ugm-3
08-01-2021,12:00,8.25499,R,ugm-3,29.84828,R,ugm-3,42.50575,R,ugm-3
08-01-2021,13:00,7.65782,R,ugm-3,31.51058,R,ugm-3,43.25240,R,ugm-3
08-01-2021,14:00,7.58756,R,ugm-3,32.52495,R,ugm-3,44.15905,R,ugm-3
08-01-2021,15:00,8.92241,R,ugm-3,35.06477,R,ugm-3,48.74561,R,ugm-3
08-01-2021,16:00,7.20116,R,ugm-3,38.39731,R,ugm-3,49.43893,R,ugm-3
08-01-2021,17:00,6.77963,R,ugm-3,42.03025,R,ugm-3,52.42553,R,ugm-3
08-01-2021,18:00,6.70937,R,ugm-3,39.41803,R,ugm-3,49.70559,R,ugm-3
08-01-2021,19:00,6.67425,R,ugm-3,44.43179,R,ugm-3,54.66549,R,ugm-3
08-01-2021,20:00,3.93429,R,ugm-3,42.55312,R,ugm-3,48.58562,R,ugm-3
08-01-2021,21:00,3.51276,R,ugm-3,42.82613,R,ugm-3,48.21229,R,ugm-3
08-01-2021,22:00,2.73995,R,ugm-3,39.95784,R,ugm-3,44.15905,R,ugm-3
08-01-2021,23:00,2.73995,R,ugm-3,44.27775,R,ugm-3,48.47895,R,ugm-3
08-01-2021,24:00,6.11220,R,ugm-3,48.28017,R,ugm-3,57.65209,R,ugm-3
09-01-2021,01:00,2.62209,R,ugm-3,35.71518,R,ugm-3,39.73566,R,ugm-3
09-01-2021,02:00,2.71574,R,ugm-3,42.75102,R,ugm-3,46.91510,R,ugm-3
09-01-2021,03:00,5.05689,R,ugm-3,42.30675,R,ugm-3,50.06054,R,ugm-3
09-01-2021,04:00,4.07361,R,ugm-3,36.29735,R,ugm-3,42.54346,R,ugm-3
09-01-2021,05:00,2.42309,R,ugm-3,33.07034,R,ugm-3,36.78570,R,ugm-3
09-01-2021,06:00,11.97500,R,ugm-3,36.28402,R,ugm-3,54.64542,R,ugm-3
09-01-2021,07:00,32.62396,R,ugm-3,40.18222,R,ugm-3,90.20493,R,ugm-3
09-01-2021,08:00,70.37505,R,ugm-3,46.53973,R,ugm-3,154.44663,R,ugm-3
09-01-2021,09:00,122.94563,R,ugm-3,57.31044,R,ugm-3,245.82443,R,ugm-3
09-01-2021,10:00,112.23485,R,ugm-3,63.55068,R,ugm-3,235.64173,R,ugm-3
09-01-2021,11:00,40.63070,R,ugm-3,51.94938,R,ugm-3,114.24892,R,ugm-3
09-01-2021,12:00,48.56721,R,ugm-3,50.54938,R,ugm-3,125.01807,R,ugm-3
09-01-2021,13:00,54.85320,R,ugm-3,45.44256,R,ugm-3,129.54964,R,ugm-3
09-01-2021,14:00,14.92485,R,ugm-3,27.86916,R,ugm-3,50.75360,R,ugm-3
09-01-2021,15:00,14.71414,R,ugm-3,31.39099,R,ugm-3,53.95236,R,ugm-3
09-01-2021,16:00,13.16898,R,ugm-3,35.57283,R,ugm-3,55.76499,R,ugm-3
09-01-2021,17:00,20.85967,R,ugm-3,50.97004,R,ugm-3,82.95442,R,ugm-3
09-01-2021,18:00,20.43826,R,ugm-3,52.73575,R,ugm-3,84.07398,R,ugm-3
09-01-2021,19:00,16.15395,R,ugm-3,42.35153,R,ugm-3,67.12057,R,ugm-3
09-01-2021,20:00,8.07698,R,ugm-3,34.10407,R,ugm-3,46.48860,R,ugm-3
09-01-2021,21:00,18.54193,R,ugm-3,47.16672,R,ugm-3,75.59728,R,ugm-3
09-01-2021,22:00,27.21590,R,ugm-3,51.14010,R,ugm-3,92.87056,R,ugm-3
09-01-2021,23:00,29.56876,R,ugm-3,50.78450,R,ugm-3,96.12263,R,ugm-3
09-01-2021,24:00,15.59208,R,ugm-3,48.33107,R,ugm-3,72.23858,R,ugm-3
10-01-2021,01:00,10.67252,R,ugm-3,40.76583,R,ugm-3,57.13013,R,ugm-3
10-01-2021,02:00,1.40428,R,ugm-3,12.98203,R,ugm-3,15.13522,R,ugm-3
10-01-2021,03:00,1.01810,R,ugm-3,5.47361,R,ugm-3,7.03468,R,ugm-3
10-01-2021,04:00,0.87767,R,ugm-3,6.64821,R,ugm-3,7.99396,R,ugm-3
10-01-2021,05:00,0.98300,R,ugm-3,7.23282,R,ugm-3,8.74006,R,ugm-3
10-01-2021,06:00,1.54471,R,ugm-3,7.54399,R,ugm-3,9.91251,R,ugm-3
10-01-2021,07:00,2.00110,R,ugm-3,7.85677,R,ugm-3,10.92507,R,ugm-3
10-01-2021,08:00,2.52770,R,ugm-3,9.02116,R,ugm-3,12.89692,R,ugm-3
10-01-2021,09:00,2.31706,R,ugm-3,9.45072,R,ugm-3,13.00350,R,ugm-3
10-01-2021,10:00,3.30006,R,ugm-3,11.99376,R,ugm-3,17.05377,R,ugm-3
10-01-2021,11:00,5.44158,R,ugm-3,18.72922,R,ugm-3,27.07286,R,ugm-3
10-01-2021,12:00,5.96819,R,ugm-3,19.14751,R,ugm-3,28.29860,R,ugm-3
10-01-2021,13:00,6.74054,R,ugm-3,24.35842,R,ugm-3,34.69377,R,ugm-3
10-01-2021,14:00,9.16292,R,ugm-3,27.67883,R,ugm-3,41.72845,R,ugm-3
10-01-2021,15:00,9.82995,R,ugm-3,28.84108,R,ugm-3,43.91346,R,ugm-3
10-01-2021,16:00,6.88097,R,ugm-3,26.96763,R,ugm-3,37.51830,R,ugm-3
10-01-2021,17:00,11.40977,R,ugm-3,39.90187,R,ugm-3,57.39660,R,ugm-3
10-01-2021,18:00,6.38947,R,ugm-3,31.07871,R,ugm-3,40.87576,R,ugm-3
10-01-2021,19:00,8.07460,R,ugm-3,30.36013,R,ugm-3,42.74102,R,ugm-3
10-01-2021,20:00,3.65113,R,ugm-3,25.15177,R,ugm-3,30.75008,R,ugm-3
10-01-2021,21:00,3.58091,R,ugm-3,17.95828,R,ugm-3,23.44894,R,ugm-3
10-01-2021,22:00,3.01920,R,ugm-3,15.40881,R,ugm-3,20.03818,R,ugm-3
10-01-2021,23:00,2.98409,R,ugm-3,18.60693,R,ugm-3,23.18247,R,ugm-3
10-01-2021,24:00,2.35217,R,ugm-3,7.42505,R,ugm-3,11.03166,R,ugm-3
11-01-2021,01:00,2.29298,R,ugm-3,8.41740,R,ugm-3,11.93326,R,ugm-3
11-01-2021,02:00,0.88912,R,ugm-3,4.95849,R,ugm-3,6.32178,R,ugm-3
11-01-2021,03:00,0.87742,R,ugm-3,4.08854,R,ugm-3,5.43389,R,ugm-3
11-01-2021,04:00,0.91251,R,ugm-3,3.28890,R,ugm-3,4.68807,R,ugm-3
11-01-2021,05:00,1.01780,R,ugm-3,2.86109,R,ugm-3,4.42170,R,ugm-3
11-01-2021,06:00,1.43896,R,ugm-3,4.93227,R,ugm-3,7.13864,R,ugm-3
11-01-2021,07:00,3.01831,R,ugm-3,8.85017,R,ugm-3,13.47819,R,ugm-3
11-01-2021,08:00,5.54527,R,ugm-3,15.15079,R,ugm-3,23.65342,R,ugm-3
11-01-2021,09:00,10.38861,R,ugm-3,29.08709,R,ugm-3,45.01608,R,ugm-3
11-01-2021,10:00,7.65107,R,ugm-3,20.55224,R,ugm-3,32.28372,R,ugm-3
11-01-2021,11:00,5.58037,R,ugm-3,16.16244,R,ugm-3,24.71889,R,ugm-3
11-01-2021,12:00,5.72076,R,ugm-3,14.93499,R,ugm-3,23.70669,R,ugm-3
11-01-2021,13:00,7.30011,R,ugm-3,16.40232,R,ugm-3,27.59565,R,ugm-3
11-01-2021,14:00,8.94965,R,ugm-3,19.52004,R,ugm-3,33.24264,R,ugm-3
11-01-2021,15:00,8.14243,R,ugm-3,16.81553,R,ugm-3,29.30041,R,ugm-3
11-01-2021,16:00,9.82707,R,ugm-3,21.42437,R,ugm-3,36.49232,R,ugm-3
11-01-2021,17:00,12.88047,R,ugm-3,21.37733,R,ugm-3,41.12711,R,ugm-3
11-01-2021,18:00,9.12513,R,ugm-3,19.67716,R,ugm-3,33.66883,R,ugm-3
11-01-2021,19:00,5.65056,R,ugm-3,12.37894,R,ugm-3,21.04302,R,ugm-3
11-01-2021,20:00,3.89573,R,ugm-3,9.26284,R,ugm-3,15.23621,R,ugm-3
11-01-2021,21:00,3.47457,R,ugm-3,8.52350,R,ugm-3,13.85110,R,ugm-3
11-01-2021,22:00,1.93032,R,ugm-3,6.68272,R,ugm-3,9.64250,R,ugm-3
11-01-2021,23:00,1.93032,R,ugm-3,4.55178,R,ugm-3,7.51156,R,ugm-3
11-01-2021,24:00,1.78993,R,ugm-3,4.87359,R,ugm-3,7.61811,R,ugm-3
12-01-2021,01:00,0.93564,R,ugm-3,4.67182,R,ugm-3,6.10645,R,ugm-3
12-01-2021,02:00,0.79529,R,ugm-3,6.52014,R,ugm-3,7.73957,R,ugm-3
12-01-2021,03:00,0.80699,R,ugm-3,4.83358,R,ugm-3,6.07094,R,ugm-3
12-01-2021,04:00,0.87716,R,ugm-3,4.19345,R,ugm-3,5.53841,R,ugm-3
12-01-2021,05:00,0.63155,R,ugm-3,3.13218,R,ugm-3,4.10055,R,ugm-3
12-01-2021,06:00,0.91225,R,ugm-3,7.33488,R,ugm-3,8.73364,R,ugm-3
12-01-2021,07:00,1.43854,R,ugm-3,10.04266,R,ugm-3,12.24839,R,ugm-3
12-01-2021,08:00,4.35071,R,ugm-3,32.73689,R,ugm-3,39.40788,R,ugm-3
12-01-2021,09:00,11.50832,R,ugm-3,51.10493,R,ugm-3,68.75077,R,ugm-3
12-01-2021,10:00,30.52512,R,ugm-3,63.43102,R,ugm-3,110.23555,R,ugm-3
12-01-2021,11:00,22.10440,R,ugm-3,57.22447,R,ugm-3,91.11741,R,ugm-3
12-01-2021,12:00,20.03430,R,ugm-3,48.20343,R,ugm-3,78.92227,R,ugm-3
12-01-2021,13:00,12.28022,R,ugm-3,38.25876,R,ugm-3,57.08817,R,ugm-3
12-01-2021,14:00,8.38564,R,ugm-3,33.15356,R,ugm-3,46.01136,R,ugm-3
12-01-2021,15:00,9.47331,R,ugm-3,37.76978,R,ugm-3,52.29532,R,ugm-3
12-01-2021,16:00,9.19262,R,ugm-3,50.71483,R,ugm-3,64.80999,R,ugm-3
12-01-2021,17:00,19.29749,R,ugm-3,66.74721,R,ugm-3,96.33629,R,ugm-3
12-01-2021,18:00,17.05196,R,ugm-3,71.04237,R,ugm-3,97.18835,R,ugm-3
12-01-2021,19:00,36.13894,R,ugm-3,79.74611,R,ugm-3,135.15837,R,ugm-3
12-01-2021,20:00,82.45292,R,ugm-3,84.03334,R,ugm-3,210.45938,R,ugm-3
12-01-2021,21:00,48.94545,R,ugm-3,75.76637,R,ugm-3,150.81502,R,ugm-3
12-01-2021,22:00,23.33242,R,ugm-3,68.06921,R,ugm-3,103.84509,R,ugm-3
12-01-2021,23:00,17.12214,R,ugm-3,65.28986,R,ugm-3,91.54344,R,ugm-3
12-01-2021,24:00,10.63116,R,ugm-3,56.44392,R,ugm-3,72.74481,R,ugm-3
13-01-2021,01:00,10.89695,R,ugm-3,59.02626,R,ugm-3,75.73469,R,ugm-3
13-01-2021,02:00,1.77719,R,ugm-3,32.48065,R,ugm-3,35.20563,R,ugm-3
13-01-2021,03:00,1.01721,R,ugm-3,31.39235,R,ugm-3,32.95204,R,ugm-3
13-01-2021,04:00,5.43679,R,ugm-3,29.72625,R,ugm-3,38.06254,R,ugm-3
13-01-2021,05:00,2.38517,R,ugm-3,27.96397,R,ugm-3,31.62119,R,ugm-3
13-01-2021,06:00,5.22633,R,ugm-3,33.98828,R,ugm-3,42.00188,R,ugm-3
13-01-2021,07:00,7.26074,R,ugm-3,26.61015,R,ugm-3,37.74313,R,ugm-3
13-01-2021,08:00,19.81796,R,ugm-3,34.87816,R,ugm-3,65.26527,R,ugm-3
13-01-2021,09:00,29.67432,R,ugm-3,54.89993,R,ugm-3,100.39992,R,ugm-3
13-01-2021,10:00,24.93906,R,ugm-3,46.82908,R,ugm-3,85.06844,R,ugm-3
13-01-2021,11:00,24.37784,R,ugm-3,41.51442,R,ugm-3,78.89326,R,ugm-3
13-01-2021,12:00,28.13098,R,ugm-3,52.42204,R,ugm-3,95.55560,R,ugm-3
13-01-2021,13:00,40.26729,R,ugm-3,60.16428,R,ugm-3,121.90659,R,ugm-3
13-01-2021,14:00,62.11966,R,ugm-3,61.15362,R,ugm-3,156.40243,R,ugm-3
13-01-2021,15:00,79.20168,R,ugm-3,53.70002,R,ugm-3,175.14091,R,ugm-3
13-01-2021,16:00,11.57509,R,ugm-3,30.48207,R,ugm-3,48.23029,R,ugm-3
13-01-2021,17:00,11.99600,R,ugm-3,34.68100,R,ugm-3,53.07462,R,ugm-3
13-01-2021,18:00,59.20834,R,ugm-3,58.64387,R,ugm-3,149.42873,R,ugm-3
13-01-2021,19:00,100.28238,R,ugm-3,74.61106,R,ugm-3,228.37522,R,ugm-3
13-01-2021,20:00,80.92041,R,ugm-3,69.64345,R,ugm-3,193.71968,R,ugm-3
13-01-2021,21:00,86.70795,R,ugm-3,69.12713,R,ugm-3,202.07747,R,ugm-3
13-01-2021,22:00,80.14874,R,ugm-3,60.07334,R,ugm-3,182.96635,R,ugm-3
13-01-2021,23:00,75.16794,R,ugm-3,60.84323,R,ugm-3,176.09912,R,ugm-3
13-01-2021,24:00,61.17260,R,ugm-3,62.76545,R,ugm-3,156.56213,R,ugm-3
14-01-2021,01:00,60.12602,R,ugm-3,60.35699,R,ugm-3,152.54894,R,ugm-3
14-01-2021,02:00,55.96489,R,ugm-3,53.18528,R,ugm-3,138.99692,R,ugm-3
14-01-2021,03:00,28.78896,R,ugm-3,48.45121,R,ugm-3,92.59366,R,ugm-3
14-01-2021,04:00,9.22228,R,ugm-3,42.58628,R,ugm-3,56.72692,R,ugm-3
14-01-2021,05:00,6.97808,R,ugm-3,38.31121,R,ugm-3,49.01078,R,ugm-3
14-01-2021,06:00,11.29116,R,ugm-3,41.54264,R,ugm-3,58.85551,R,ugm-3
14-01-2021,07:00,12.30807,R,ugm-3,41.36699,R,ugm-3,60.23909,R,ugm-3
14-01-2021,08:00,32.61112,R,ugm-3,52.75466,R,ugm-3,102.75767,R,ugm-3
14-01-2021,09:00,49.12707,R,ugm-3,60.10440,R,ugm-3,135.43153,R,ugm-3
14-01-2021,10:00,28.61363,R,ugm-3,62.28980,R,ugm-3,106.16342,R,ugm-3
14-01-2021,11:00,18.65496,R,ugm-3,50.89895,R,ugm-3,79.50283,R,ugm-3
14-01-2021,12:00,25.59798,R,ugm-3,51.21539,R,ugm-3,90.46507,R,ugm-3
14-01-2021,13:00,25.03692,R,ugm-3,53.13995,R,ugm-3,91.52936,R,ugm-3
14-01-2021,14:00,24.68627,R,ugm-3,53.94369,R,ugm-3,91.79544,R,ugm-3
14-01-2021,15:00,20.33812,R,ugm-3,53.53320,R,ugm-3,84.71788,R,ugm-3
14-01-2021,16:00,20.26799,R,ugm-3,57.20612,R,ugm-3,88.28326,R,ugm-3
14-01-2021,17:00,39.83466,R,ugm-3,64.18856,R,ugm-3,125.26751,R,ugm-3
14-01-2021,18:00,39.48400,R,ugm-3,63.92800,R,ugm-3,124.46929,R,ugm-3
14-01-2021,19:00,38.18657,R,ugm-3,67.30095,R,ugm-3,125.85287,R,ugm-3
14-01-2021,20:00,40.88663,R,ugm-3,68.48239,R,ugm-3,131.17435,R,ugm-3
14-01-2021,21:00,25.59798,R,ugm-3,68.66982,R,ugm-3,107.91950,R,ugm-3
14-01-2021,22:00,34.39947,R,ugm-3,64.69983,R,ugm-3,117.44494,R,ugm-3
14-01-2021,23:00,22.93298,R,ugm-3,61.04885,R,ugm-3,96.21226,R,ugm-3
14-01-2021,24:00,31.76954,R,ugm-3,60.59047,R,ugm-3,109.30309,R,ugm-3
15-01-2021,01:00,20.23865,R,ugm-3,59.89611,R,ugm-3,90.92828,R,ugm-3
15-01-2021,02:00,19.63103,R,ugm-3,52.10379,R,ugm-3,82.20427,R,ugm-3
15-01-2021,03:00,25.13473,R,ugm-3,46.67929,R,ugm-3,85.21867,R,ugm-3
15-01-2021,04:00,23.48712,R,ugm-3,45.37553,R,ugm-3,81.38862,R,ugm-3
15-01-2021,05:00,11.32290,R,ugm-3,45.56836,R,ugm-3,62.92989,R,ugm-3
15-01-2021,06:00,17.10704,R,ugm-3,44.35957,R,ugm-3,70.58999,R,ugm-3
15-01-2021,07:00,22.47052,R,ugm-3,41.88077,R,ugm-3,76.33507,R,ugm-3
15-01-2021,08:00,27.09783,R,ugm-3,47.39291,R,ugm-3,88.94233,R,ugm-3
15-01-2021,09:00,33.51297,R,ugm-3,55.64285,R,ugm-3,107.02869,R,ugm-3
15-01-2021,10:00,16.16054,R,ugm-3,37.88476,R,ugm-3,62.66391,R,ugm-3
15-01-2021,11:00,20.08675,R,ugm-3,31.65189,R,ugm-3,62.45113,R,ugm-3
15-01-2021,12:00,19.87642,R,ugm-3,28.25073,R,ugm-3,58.72747,R,ugm-3
15-01-2021,13:00,14.19744,R,ugm-3,24.88306,R,ugm-3,46.65217,R,ugm-3
15-01-2021,14:00,13.81183,R,ugm-3,22.54859,R,ugm-3,43.72643,R,ugm-3
15-01-2021,15:00,13.14578,R,ugm-3,23.62305,R,ugm-3,43.77963,R,ugm-3
15-01-2021,16:00,13.49633,R,ugm-3,27.76672,R,ugm-3,48.46080,R,ugm-3